Cartersville, GA

9:25 PM EDT on April 24, 2018 (GMT -0400)
Cartersville

Weather History for KVPC - February, 2013

Change the Weather History Date:

Thursday, February 21, 2013

  Actual Average Record
Temperature  
Mean Temperature 46 °F 46 °F  
Max Temperature 64 °F 58 °F 76 °F (2018)
Min Temperature 28 °F 34 °F 19 °F (2009)
Degree Days  
Heating Degree Days 19 19  
Month to date heating degree days 444  
Since 1 July heating degree days 2485  
Moisture  
Dew Point 29 °F    
Average Humidity 56    
Maximum Humidity 100    
Minimum Humidity 18    
Precipitation  
Precipitation 0.46 in 0.18 in 3.68 in (1961)
Month to date precipitation 3.56  
Year to date precipitation 8.16  
Snow  
Snow 0.00 in - - ()
Month to date snowfall  
Since 1 July snowfall  
Snow Depth -    
Sea Level Pressure  
Sea Level Pressure 30.09 in    
Wind  
Wind Speed 3 mph (East)    
Max Wind Speed 8 mph    
Max Gust Speed -    
Visibility 8 miles    
Events Rain , Thunderstorm    
T = Trace of Precipitation, MM = Missing Value Source: NWS Daily Summary

Daily Weather History Graph

Daily Weather History Graph

Search for Another Location

Airport or City:

Astronomy

Feb. 21, 2013 Rise Set
Actual Time 7:17 AM EST 6:28 PM EST
Civil Twilight 6:52 AM EST 6:54 PM EST
Nautical Twilight 6:22 AM EST 7:23 PM EST
Astronomical Twilight 5:53 AM EST 7:52 PM EST
Moon 2:49 PM EST (2/21) 4:14 AM EST (2/21)
Length of Visible Light 12h 02m
Length of Day
11h 11m
Waxing Gibbous, 83% of the Moon is Illuminated
Feb 21
Waxing Gibbous
Feb 25
Full
Mar 4
Last Quarter
Mar 11
New
Mar 19
First Quarter

Hourly Weather History & Observations

Time (EST) Temp. Windchill Dew Point Humidity Pressure Visibility Wind Dir Wind Speed Gust Speed Precip Events Conditions
12:53 AM 37.9 °F - 17.1 °F 43% 30.15 in 10.0 mi Calm Calm - N/A   Overcast
1:53 AM 37.0 °F - 16.0 °F 42% 30.16 in 10.0 mi Calm Calm - N/A   Overcast
2:53 AM 35.1 °F - 18.0 °F 50% 30.14 in 10.0 mi Calm Calm - N/A   Mostly Cloudy
3:53 AM 34.0 °F - 16.0 °F 48% 30.14 in 10.0 mi Calm Calm - N/A   Scattered Clouds
5:53 AM 28.0 °F - 19.9 °F 72% 30.16 in 10.0 mi Calm Calm - N/A   Clear
6:53 AM 30.0 °F - 19.0 °F 64% 30.19 in 10.0 mi Calm Calm - N/A   Clear
8:53 AM 34.0 °F 31.0 °F 19.0 °F 54% 30.21 in 10.0 mi East 3.5 mph - N/A   Clear
9:53 AM 39.0 °F - 19.0 °F 45% 30.21 in 10.0 mi Calm Calm - N/A   Clear
10:53 AM 48.0 °F - 19.9 °F 33% 30.16 in 10.0 mi Variable 6.9 mph - N/A   Clear
11:53 AM 53.1 °F - 19.0 °F 26% 30.14 in 10.0 mi East 8.1 mph - N/A   Clear
12:53 PM 57.9 °F - 19.9 °F 23% 30.09 in 10.0 mi Variable 5.8 mph - N/A   Clear
1:53 PM 62.1 °F - 18.0 °F 18% 30.05 in 10.0 mi ESE 6.9 mph - N/A   Clear
2:53 PM 64.0 °F - 21.9 °F 20% 30.02 in 10.0 mi South 6.9 mph - N/A   Clear
3:53 PM 64.0 °F - 24.1 °F 22% 29.98 in 10.0 mi ESE 8.1 mph - N/A   Clear
4:53 PM 62.1 °F - 24.1 °F 23% 29.97 in 10.0 mi Variable 6.9 mph - N/A   Clear
5:53 PM 61.0 °F - 25.0 °F 25% 29.96 in 10.0 mi SSE 8.1 mph - N/A   Scattered Clouds
6:53 PM 57.9 °F - 30.9 °F 36% 29.96 in 10.0 mi ESE 4.6 mph - 0.01 in Rain Light Rain
7:53 PM 59.0 °F - 28.9 °F 32% 30.00 in 10.0 mi East 5.8 mph - 0.00 in   Overcast
8:29 PM 55.4 °F - 35.6 °F 47% 30.04 in 9.0 mi Variable 4.6 mph - 0.01 in Rain , Thunderstorm Light Rain
8:44 PM 50.0 °F - 42.8 °F 76% 30.03 in 10.0 mi ESE 5.8 mph - 0.03 in Rain Light Rain
8:53 PM 50.0 °F - 42.1 °F 74% 30.02 in 10.0 mi Calm Calm - 0.03 in Rain Light Rain
9:53 PM 48.9 °F - 41.0 °F 74% 30.03 in 5.0 mi East 5.8 mph - 0.03 in Rain Rain
10:45 PM 46.4 °F 44.3 °F 44.6 °F 93% 30.08 in 3.0 mi ENE 4.6 mph - 0.10 in Rain Heavy Rain
10:53 PM 46.0 °F - 44.1 °F 93% 30.08 in 4.0 mi Calm Calm - 0.13 in Rain Rain
11:23 PM 44.6 °F - 44.6 °F 100% 30.13 in 4.0 mi Calm Calm - 0.09 in Rain , Thunderstorm Rain
11:34 PM 44.6 °F 42.2 °F 44.6 °F 100% 30.12 in 2.5 mi East 4.6 mph - 0.15 in Rain , Thunderstorm Heavy Rain
11:44 PM 44.6 °F - 44.6 °F 100% 30.13 in 3.0 mi Calm Calm - 0.20 in Rain , Thunderstorm Heavy Rain
11:53 PM 45.0 °F 43.5 °F 44.1 °F 97% 30.11 in 2.5 mi NNE 3.5 mph - 0.26 in Rain , Thunderstorm Heavy Rain
11:58 PM 44.6 °F 42.2 °F 44.6 °F 100% 30.11 in 3.0 mi East 4.6 mph - 0.03 in Rain Rain